FW5926 Weather Reports


time (UTC)temp
F
wind
direction
speed
knots
gust
knots
rain 1hr
in
rain 24hr
in
rain mn
in
humidity
%
barometer
mb
20260503202104 62 244 3.5 8.7 0.00 0.00 0.00 45 1010.6
20260503201604 61 266 9.6 19.1 0.00 0.00 0.00 43 1010.8
20260503201104 62 276 7.0 17.4 0.00 0.00 0.00 44 1010.9
20260503200605 62 231 4.3 10.4 0.00 0.00 0.00 44 1010.9
20260503200105 62 261 7.8 17.4 0.00 0.00 0.00 43 1010.9
20260503195604 62 270 6.1 13.9 0.00 0.00 0.00 43 1011.0
20260503195104 62 285 4.3 13.9 0.00 0.00 0.00 44 1011.0
20260503194603 62 264 5.2 12.2 0.00 0.00 0.00 43 1011.2
20260503194104 62 217 5.2 10.4 0.00 0.00 0.00 43 1011.1
20260503193104 62 238 10.4 19.1 0.00 0.00 0.00 42 1011.3
20260503192604 62 263 7.8 14.8 0.00 0.00 0.00 42 1011.4
20260503191604 62 194 4.3 11.3 0.00 0.00 0.00 44 1011.5
20260503191103 61 170 4.3 12.2 0.00 0.00 0.00 45 1011.5
20260503190604 61 281 7.8 15.6 0.00 0.00 0.00 44 1011.6
20260503185604 61 255 8.7 17.4 0.00 0.00 0.00 44 1011.8
20260503184604 61 274 7.8 15.6 0.00 0.00 0.00 44 1011.8
20260503184104 61 200 8.7 15.6 0.00 0.00 0.00 42 1011.9
20260503183604 61 163 6.1 14.8 0.00 0.00 0.00 44 1011.9
20260503183103 61 272 6.1 17.4 0.00 0.00 0.00 44 1012.1
20260503182605 61 267 8.7 17.4 0.00 0.00 0.00 43 1012.2
20260503182103 60 277 10.4 15.6 0.00 0.00 0.00 44 1012.2
20260503181604 60 264 7.0 13.9 0.00 0.00 0.00 46 1012.2
20260503181104 60 276 7.8 17.4 0.00 0.00 0.00 44 1012.4
20260503180604 60 248 6.1 11.3 0.00 0.00 0.00 44 1012.5
20260503180106 60 269 10.4 14.8 0.00 0.00 0.00 43 1012.5
20260503175604 60 279 9.6 14.8 0.00 0.00 0.00 44 1012.6
20260503175103 60 278 8.7 17.4 0.00 0.00 0.00 44 1012.7
20260503174104 60 257 7.0 18.2 0.00 0.00 0.00 44 1012.8
20260503173604 60 224 6.1 17.4 0.00 0.00 0.00 44 1012.9
20260503172604 59 258 6.1 18.2 0.00 0.00 0.00 43 1013.0
20260503171604 59 269 8.7 17.4 0.00 0.00 0.00 46 1013.2
20260503171103 58 263 4.3 11.3 0.00 0.00 0.00 46 1013.3
20260503170603 59 257 6.1 13.9 0.00 0.00 0.00 45 1013.4
20260503170106 59 239 5.2 13.0 0.00 0.00 0.00 46 1013.4
20260503160106 55 271 4.3 11.3 0.00 0.00 0.00 51 1014.1
20260503150604 54 259 7.8 13.0 0.00 0.00 0.00 50 1014.4
20260503140105 49 263 5.2 13.0 0.00 0.00 0.00 60 1014.5
20260503131104 45 278 4.3 7.8 0.00 0.00 0.00 66 1014.9
20260503130604 45 273 2.6 8.7 0.00 0.00 0.00 66 1014.8
20260503130106 44 267 4.3 11.3 0.00 0.00 0.00 65 1014.9
20260503120105 40 208 2.6 7.8 0.00 0.00 0.00 69 1014.7
20260503110603 39 190 1.7 4.3 0.00 0.00 0.00 68 1014.6
20260503110106 39 189 1.7 4.3 0.00 0.00 0.00 68 1014.6
20260503100106 38 170 1.7 2.6 0.00 0.00 0.00 68 1014.8
20260503090105 37 262 1.7 2.6 0.00 0.00 0.00 70 1015.1
20260503081604 37 230 0.0 1.7 0.00 0.00 0.00 69 1015.3
20260503080604 38 203 0.0 2.6 0.00 0.00 0.00 68 1015.4
20260503080105 38 229 0.9 2.6 0.00 0.00 0.00 68 1015.4
20260503072604 38 224 0.9 2.6 0.00 0.00 0.00 68 1015.5
20260503072104 38 270 0.0 1.7 0.00 0.00 0.00 68 1015.5
20260503071105 38 252 0.9 1.7 0.00 0.00 0.00 69 1015.4
20260503070604 38 265 0.9 1.7 0.00 0.00 0.00 69 1015.5
20260503070106 38 265 0.0 1.7 0.00 0.00 0.00 69 1015.5
20260503060106 37 296 0.9 1.7 0.00 0.00 0.00 70 1015.9
20260503055103 38 296 0.9 2.6 0.00 0.00 0.00 70 1016.0
20260503054604 38 296 0.0 0.9 0.00 0.00 0.00 70 1016.1
20260503054105 38 296 0.9 1.7 0.00 0.00 0.00 70 1016.1
20260503053604 38 296 0.9 1.7 0.00 0.00 0.00 70 1016.1
20260503053104 38 296 0.0 0.9 0.00 0.00 0.00 70 1016.1
20260503052604 38 296 0.0 0.9 0.00 0.00 0.00 70 1016.1
20260503052104 38 296 0.0 0.9 0.00 0.00 0.00 70 1016.1
20260503051604 38 296 0.9 1.7 0.00 0.00 0.00 70 1016.2
20260503051104 38 296 0.9 1.7 0.00 0.00 0.00 69 1016.2
20260503050604 38 296 0.0 0.9 0.00 0.00 0.00 69 1016.3
20260503045604 39 296 0.0 1.7 0.00 0.00 0.00 69 1016.4
20260503045104 39 296 0.9 1.7 0.00 0.00 0.00 68 1016.4
20260503044604 39 296 0.9 1.7 0.00 0.00 0.00 68 1016.3
20260503044104 39 296 0.9 2.6 0.00 0.00 0.00 68 1016.4
20260503043604 39 296 0.9 1.7 0.00 0.00 0.00 68 1016.4
20260503043104 39 296 0.0 1.7 0.00 0.00 0.00 68 1016.3
20260503042605 39 296 0.0 1.7 0.00 0.00 0.00 68 1016.3
20260503042104 39 296 0.9 1.7 0.00 0.00 0.00 68 1016.4
20260503041604 39 296 0.0 0.9 0.00 0.00 0.00 68 1016.4
20260503041104 39 296 0.9 1.7 0.00 0.00 0.00 69 1016.5
20260503035104 40 296 0.0 0.9 0.00 0.00 0.00 68 1016.5
20260503034604 40 296 0.0 0.0 0.00 0.00 0.00 68 1016.6
20260503034103 40 296 0.0 0.9 0.00 0.00 0.00 68 1016.5
20260503033604 41 296 0.0 0.0 0.00 0.00 0.00 67 1016.5
20260503033104 41 296 0.0 0.9 0.00 0.00 0.00 67 1016.6
20260503032604 41 296 0.9 1.7 0.00 0.00 0.00 67 1016.6
20260503032104 41 296 0.0 1.7 0.00 0.00 0.00 67 1016.6
20260503030604 41 296 0.0 1.7 0.00 0.00 0.00 66 1016.6
20260503025603 41 296 0.0 0.9 0.00 0.00 0.00 66 1016.6
20260503025104 41 296 0.0 0.9 0.00 0.00 0.00 66 1016.7
20260503024104 41 296 0.0 0.9 0.00 0.00 0.00 64 1016.8
20260503023604 42 296 0.0 0.0 0.00 0.00 0.00 63 1016.7
20260503023105 42 296 0.0 0.9 0.00 0.00 0.00 63 1016.7
20260503022104 43 296 0.0 0.0 0.00 0.00 0.00 61 1016.7
20260503021604 43 296 0.0 0.0 0.00 0.00 0.00 60 1016.6
20260503021104 44 296 0.0 0.9 0.00 0.00 0.00 59 1016.5
20260503020604 44 296 0.0 0.0 0.00 0.00 0.00 58 1016.5
20260503020105 44 296 0.0 0.0 0.00 0.00 0.00 58 1016.4
20260503015604 44 296 0.0 0.9 0.00 0.00 0.00 57 1016.4
20260503015104 45 296 0.0 0.9 0.00 0.00 0.00 57 1016.4
20260503014604 45 296 0.0 1.7 0.00 0.00 0.00 56 1016.4
20260503014104 45 314 0.0 1.7 0.00 0.00 0.00 56 1016.3
20260503013604 45 314 0.0 1.7 0.00 0.00 0.00 55 1016.3
20260503012604 45 315 0.0 0.9 0.00 0.00 0.00 54 1016.2
20260503012104 45 315 0.0 0.9 0.00 0.00 0.00 55 1016.2
20260503011105 46 315 0.0 0.9 0.00 0.00 0.00 54 1016.2
20260503010604 46 315 0.0 0.9 0.00 0.00 0.00 53 1016.2
20260503010105 46 315 0.0 0.9 0.00 0.00 0.00 52 1016.2
20260503005604 46 315 0.0 0.9 0.00 0.00 0.00 52 1016.1
20260503005105 46 315 0.0 0.9 0.00 0.00 0.00 51 1016.1
20260503004604 47 315 0.0 0.9 0.00 0.00 0.00 50 1016.1
20260503004104 47 315 0.0 0.9 0.00 0.00 0.00 50 1016.0
20260503003104 47 315 0.0 1.7 0.00 0.00 0.00 50 1015.9
20260503002604 47 315 0.0 1.7 0.00 0.00 0.00 50 1015.9
20260503001604 47 315 0.9 2.6 0.00 0.00 0.00 49 1015.9
20260503001105 47 315 1.7 2.6 0.00 0.00 0.00 49 1015.9
20260503000604 47 294 2.6 4.3 0.00 0.00 0.00 49 1015.9
20260503000105 47 324 1.7 2.6 0.00 0.00 0.00 49 1015.9
20260502235604 47 306 1.7 2.6 0.00 0.00 0.00 49 1015.9
20260502234604 47 308 1.7 2.6 0.00 0.00 0.00 49 1016.0
20260502234104 47 288 2.6 7.0 0.00 0.00 0.00 48 1015.9
20260502233604 48 312 1.7 4.3 0.00 0.00 0.00 48 1015.9
20260502233104 47 257 1.7 5.2 0.00 0.00 0.00 48 1016.0
20260502231604 47 334 2.6 5.2 0.00 0.00 0.00 48 1016.1
20260502231104 47 288 1.7 6.1 0.00 0.00 0.00 47 1016.1
20260502230604 48 297 2.6 7.8 0.00 0.00 0.00 47 1016.1
20260502230105 48 311 2.6 6.1 0.00 0.00 0.00 46 1016.2
20260502225605 48 331 3.5 7.8 0.00 0.00 0.00 46 1016.2
20260502225104 48 312 3.5 7.8 0.00 0.00 0.00 47 1016.2
20260502224604 47 342 2.6 5.2 0.00 0.00 0.00 48 1016.2
20260502224104 47 264 4.3 7.8 0.00 0.00 0.00 48 1016.2
20260502223604 47 340 2.6 4.3 0.00 0.00 0.00 46 1016.3
20260502223104 47 325 2.6 5.2 0.00 0.00 0.00 46 1016.3
20260502222604 47 316 2.6 7.0 0.00 0.00 0.00 45 1016.2
20260502222104 47 330 2.6 7.8 0.00 0.00 0.00 45 1016.4
20260502221604 48 337 1.7 4.3 0.00 0.00 0.00 45 1016.4
20260502221105 48 343 2.6 7.0 0.00 0.00 0.00 45 1016.4
20260502220604 48 317 4.3 7.8 0.00 0.00 0.00 46 1016.4
20260502215604 47 325 3.5 7.8 0.00 0.00 0.00 46 1016.4
20260502215104 47 9 2.6 7.0 0.00 0.00 0.00 45 1016.4
20260502214604 47 341 5.2 10.4 0.00 0.00 0.00 44 1016.4
20260502214105 47 325 3.5 7.0 0.00 0.00 0.00 46 1016.4
20260502213605 47 316 3.5 6.1 0.00 0.00 0.00 45 1016.4
20260502213104 47 306 4.3 7.8 0.00 0.00 0.00 46 1016.4
20260502212104 47 333 3.5 8.7 0.00 0.00 0.00 46 1016.4
20260502211605 47 322 4.3 7.8 0.00 0.00 0.00 46 1016.5
20260502211104 47 287 2.6 8.7 0.00 0.00 0.00 46 1016.6
20260502210603 47 352 5.2 8.7 0.00 0.00 0.00 45 1016.5
20260502205104 47 330 2.6 7.8 0.00 0.00 0.00 46 1016.6
20260502204604 47 278 2.6 7.8 0.00 0.00 0.00 47 1016.6
20260502204104 47 315 4.3 10.4 0.00 0.00 0.00 45 1016.7
20260502203604 47 341 4.3 10.4 0.00 0.00 0.00 46 1016.7
20260502203104 47 326 6.1 12.2 0.00 0.00 0.00 46 1016.8